Вернуться в каталог

FENGYUN 1C DEB

АктивенPO
NORAD 38512·DEBRIS·🇨🇳 China

Запущен May 10, 1999 с Taiyuan Satellite Launch Center

Loading…

Ближайшие Пролёты (ближайшие 24 часа)

TLE

СвежийSource: Space-Track

Эпоха: Sep 12, 2026, 13:36 UTC

1 38512U 99025ESX 26255.56679443  .00000713  00000-0  65308-3 0  9994
2 38512  98.3588 108.9319 0227175  86.3826 276.3274 13.74625146633316

Отслеживайте FENGYUN 1C DEB в реальном времени с AllMySat

Download on the App Store